Regional Weather Roundup
Issued by NWS Sterling, VA

Home | Current Version | Previous Version | Graphics & Text | Print | Product List | Glossary On
Versions: 1 2 3 4 5 6 7 8 9 10 11 12 13 14 15 16 17 18 19 20 21 22 23 24 25 26 27
000
ASUS41 KLWX 231011
RWRLWX

REGIONAL WEATHER ROUNDUP
NATIONAL WEATHER SERVICE BALTIMORE MD/WASHINGTON DC
600 AM EDT FRI JUN 23 2017

Note: "FAIR" indicates few or no clouds below 12,000 feet
with no significant weather and/or obstructions to visibility.
 TC=TEMPERATURE CELSIUS

 * =Non NWS site. Station does not report precipitation (e.g. rain,
    snow, etc.), thunder, or fog.

DCZ001-MDZ009-015-VAZ040>042-051-053>054-231100-
WASHINGTON METRO

CITY           SKY/WX    TMP DP  RH WIND       PRES   REMARKS
WASHINGTON NAT LGT RAIN  76  70  82 SW14      29.89R
DULLES         HVY RAIN  72  69  90 SW10      29.89R FOG
ANDREWS AFB    MOCLDY    75  70  83 SW12      29.89R
FT BELVOIR     LGT RAIN  76  68  77 SW3       29.90R
QUANTICO       HVY RAIN  73  71  93 W8G20     29.92R FOG
COLLEGE PARK*  CLOUDY    76  70  82 CALM      29.88R
LEESBURG*      RAIN      73  72  94 SW8       29.90R
MANASSAS*      LGT RAIN  72  70  94 S7        29.90R
GAITHERSBURG*  LGT RAIN  74  70  87 S6        29.89S

$$

MDZ006>007-011-014-231100-
BALTIMORE METRO

CITY           SKY/WX    TMP DP  RH WIND       PRES   REMARKS
BWI AIRPORT    LGT RAIN  75  73  93 SW6       29.86R
MD SCIENCE CTR   N/A     78  72  81 MISG      29.86R
MARTIN STATE   MOCLDY    77  75  94 S7        29.87S
ANNAPOLIS      CLOUDY    77  74  90 VRB5      29.86S

$$

MDZ012-015-019>023-231100-
MARYLAND EASTERN SHORE

CITY           SKY/WX    TMP DP  RH WIND       PRES   REMARKS
OCEAN CITY     CLOUDY    77  72  84 SW10      29.91S
SALISBURY      CLOUDY    74  73  97 SW6       29.90S
BAY BRIDGE AP* PTCLDY    77  72  83 SW9       29.87S
CAMBRIDGE*     CLEAR     77  72  83 VRB5      29.89S
EASTON*        CLOUDY    77  72  83 SW7       29.92S

$$

MDZ017>025-231100-
SOUTHERN MARYLAND

CITY           SKY/WX    TMP DP  RH WIND       PRES   REMARKS
PATUXENT RIVER LGT RAIN  77  69  76 SW9       29.90R
ST INIGOES     CLOUDY    77  71  82 SW10      29.90R
LEONARDTOWN*   CLOUDY    75  68  78 SW9       29.93R

$$

MDZ003>005-231100-
NORTH CENTRAL MARYLAND

CITY           SKY/WX    TMP DP  RH WIND       PRES   REMARKS
FREDERICK*     LGT RAIN  73  73 100 SW6       29.90R
HAGERSTOWN APT LGT RAIN  74  70  87 S8        29.87R
WESTMINSTER*   LGT RAIN  75  72  88 SW12      29.88S

$$

MDZ501>502-231100-
WESTERN MARYLAND

CITY           SKY/WX    TMP DP  RH WIND       PRES   REMARKS
OAKLAND*       NOT AVBL
CUMBERLAND*    CLOUDY    70  70 100 S7        29.88F

$$

VAZ025>031-231100-
SHENANDOAH VALLEY

CITY           SKY/WX    TMP DP  RH WIND       PRES   REMARKS
WINCHESTER*    CLOUDY    68  68 100 S3        29.88F
FRONT ROYAL*   CLOUDY    68  68 100 SW3       29.87F
LURAY*         CLOUDY    70  68  94 SW7       29.90F
NEW MARKET*    MOCLDY    69  66  91 SW3       29.89F
STAUNTON*      DRIZZLE   67  66  94 S5        29.94F
WAYNESBORO*    CLOUDY    67  67 100 CALM      29.94S

$$

WVZ021-048>050-054>055-231100-
EASTERN WEST VIRGINIA PANHANDLE

CITY           SKY/WX    TMP DP  RH WIND       PRES   REMARKS
MARTINSBURG    LGT RAIN  71  68  90 S7        29.86S FOG
PETERSBURG*    CLOUDY    71  68  92 S5        29.87F

$$

VAZ036>039-050-231100-
CENTRAL FOOTHILLS

CITY           SKY/WX    TMP DP  RH WIND       PRES   REMARKS
CHARLOTTESVILL CLOUDY    71  69  93 S9        29.91F
CULPEPER*      CLOUDY    72  71  95 CALM      29.91S
ORANGE*        CLOUDY    70  68  94 S6        29.91F
GORDONSVILLE*  CLOUDY    70  70 100 SW8       29.91F
WARRENTON*     CLOUDY    72  68  88 CALM      29.90S

$$

VAZ055>057-231100-
NORTH AND CENTRAL PIEDMONT

CITY           SKY/WX    TMP DP  RH WIND       PRES   REMARKS
FREDERICKSBRG* LGT RAIN  73  73  98 S8        29.90S
STAFFORD*      CLOUDY    70  70 100 CALM      29.95R

$$

NCZ024-NYZ072-PAZ021-071-VAZ022-071-231100-
OTHER REGIONAL OBSERVATIONS

CITY           SKY/WX    TMP DP  RH WIND       PRES   REMARKS
NEW YORK CITY  PTCLDY    78  70  76 W3        29.86R
PHILADELPHIA   MOCLDY    76  72  87 S9        29.85S
PITTSBURGH     DRIZZLE   69  69 100 S3        29.80S
ROANOKE        CLOUDY    71  70  96 CALM      29.97F
RICHMOND       RAIN      73  72  96 S6        29.94S FOG
RALEIGH        CLOUDY    74  73  97 SW7       30.00R

$$

ANZ530>537-231100-
MARINE OBSERVATIONS

STATION/POSITION TIME  TEMP    WIND        PRES
                       AIR SEA DIR/SP/G
                 (UTC) (F)     (DEG/KT/KT) (MB)
THOMAS PT LIGHT  1000   78 78  240/ 19/ 22   N/A
BALT KEY BRIDGE  0942   76     210/  5/  6 1010.8R
COVE POINT       0942   78     260/ 10/ 17 1012.8R
LEWISETTA        0942   77 79  240/  8/ 10 1012.8S
SOLOMONS ISLAND  0942   78 77  230/ 12/ 15   N/A
PINEY POINT      0942          250/  8/ 14   N/A

$$





USA.gov is the U.S. government's official web portal to all federal, state and local government web resources and services.